FLY9 NZKK-NZAA

Flight info

Callsign FLY9
Flight time 0h 32m
Altitude 20000
Route OBKOP DCT UKAPA
Aircraft C25C/M-SDE2E3FGHRWXY/LB1

Departure

Time 2026-04-11 09:21
Airport Kerikeri Airport (NZKK)

Arrival

Time 2026-04-11 09:54
Airport Auckland International Airport (NZAA)
Time Latitude Longitude Altitude Speed Heading
2026-04-11 09:05 -35.26238 173.91196 491 ft 0 kts 188°
2026-04-11 09:16 -35.26209 173.91201 491 ft 0 kts 188°
2026-04-11 09:18 -35.26241 173.91247 491 ft 19 kts 137°
2026-04-11 09:18 -35.26263 173.91272 491 ft 0 kts 106°
2026-04-11 09:20 -35.26205 173.91350 490 ft 19 kts 347°
2026-04-11 09:20 -35.25918 173.91258 489 ft 57 kts 348°
2026-04-11 09:20 -35.25525 173.91140 484 ft 56 kts 349°
2026-04-11 09:20 -35.25324 173.91080 481 ft 6 kts 278°
2026-04-11 09:21 -35.25433 173.91108 484 ft 58 kts 165°
2026-04-11 09:21 -35.26196 173.91354 542 ft 162 kts 165°
2026-04-11 09:21 -35.27304 173.91625 1663 ft 159 kts 173°
2026-04-11 09:21 -35.28417 173.91735 3113 ft 162 kts 179°
2026-04-11 09:22 -35.29545 173.91686 4588 ft 163 kts 186°
2026-04-11 09:22 -35.30663 173.91480 6052 ft 162 kts 192°
2026-04-11 09:22 -35.31744 173.91119 7481 ft 160 kts 199°
2026-04-11 09:22 -35.32774 173.90616 8881 ft 159 kts 206°
2026-04-11 09:23 -35.33846 173.90403 10202 ft 161 kts 158°
2026-04-11 09:23 -35.34676 173.91310 11452 ft 165 kts 137°
2026-04-11 09:23 -35.35636 173.92138 12700 ft 172 kts 154°
2026-04-11 09:23 -35.36754 173.92683 14007 ft 174 kts 161°
2026-04-11 09:24 -35.37903 173.93132 15299 ft 173 kts 163°
2026-04-11 09:24 -35.39179 173.93623 15980 ft 214 kts 163°
2026-04-11 09:24 -35.40809 173.94258 16030 ft 279 kts 162°
2026-04-11 09:24 -35.42851 173.95064 16037 ft 336 kts 162°
2026-04-11 09:25 -35.45200 173.95993 15621 ft 381 kts 158°
2026-04-11 09:25 -35.47710 173.96982 15659 ft 364 kts 157°
2026-04-11 09:25 -35.50022 173.97879 15644 ft 335 kts 156°
2026-04-11 09:25 -35.52160 173.98727 15641 ft 312 kts 156°
2026-04-11 09:26 -35.54166 173.99524 15637 ft 295 kts 155°
2026-04-11 09:26 -35.56072 174.00281 15636 ft 282 kts 155°
2026-04-11 09:26 -35.57901 174.01005 15629 ft 271 kts 155°
2026-04-11 09:26 -35.59694 174.01612 15624 ft 264 kts 159°
2026-04-11 09:27 -35.61441 174.02154 15623 ft 255 kts 157°
2026-04-11 09:27 -35.63131 174.02706 15629 ft 249 kts 157°
2026-04-11 09:27 -35.64791 174.03239 15635 ft 245 kts 158°
2026-04-11 09:27 -35.66426 174.03754 15629 ft 241 kts 157°
2026-04-11 09:28 -35.68037 174.04259 15635 ft 237 kts 157°
2026-04-11 09:28 -35.69625 174.04762 15637 ft 235 kts 157°
2026-04-11 09:28 -35.71198 174.05262 15643 ft 232 kts 157°
2026-04-11 09:28 -35.72756 174.05754 15642 ft 230 kts 156°
2026-04-11 09:29 -35.74301 174.06245 15641 ft 229 kts 157°
2026-04-11 09:29 -35.75837 174.06732 15644 ft 227 kts 156°
2026-04-11 09:29 -35.77367 174.07216 15644 ft 227 kts 156°
2026-04-11 09:29 -35.78894 174.07703 15650 ft 226 kts 156°
2026-04-11 09:30 -35.80415 174.08184 15651 ft 225 kts 156°
2026-04-11 09:30 -35.81934 174.08667 15648 ft 225 kts 156°
2026-04-11 09:30 -35.83448 174.09149 15655 ft 225 kts 156°
2026-04-11 09:30 -35.84973 174.09633 15654 ft 226 kts 156°
2026-04-11 09:31 -35.86490 174.10116 15658 ft 225 kts 157°
2026-04-11 09:31 -35.88007 174.10597 15660 ft 224 kts 156°
2026-04-11 09:31 -35.89516 174.11078 15664 ft 224 kts 157°
2026-04-11 09:31 -35.91028 174.11560 15660 ft 225 kts 157°
2026-04-11 09:32 -35.92542 174.12043 15666 ft 225 kts 157°
2026-04-11 09:32 -35.94058 174.12524 15665 ft 225 kts 157°
2026-04-11 09:32 -35.95573 174.13009 15666 ft 225 kts 157°
2026-04-11 09:32 -35.97088 174.13490 15666 ft 225 kts 157°
2026-04-11 09:33 -35.98603 174.13975 15670 ft 225 kts 158°
2026-04-11 09:33 -36.00123 174.14459 15668 ft 225 kts 158°
2026-04-11 09:33 -36.01643 174.14943 15671 ft 226 kts 158°
2026-04-11 09:33 -36.03165 174.15432 15671 ft 226 kts 158°
2026-04-11 09:34 -36.04689 174.15917 15670 ft 226 kts 158°
2026-04-11 09:34 -36.06214 174.16404 15672 ft 226 kts 158°
2026-04-11 09:34 -36.07751 174.16899 15673 ft 231 kts 158°
2026-04-11 09:34 -36.09318 174.17399 15675 ft 234 kts 158°
2026-04-11 09:35 -36.10908 174.17908 15678 ft 238 kts 158°
2026-04-11 09:35 -36.12518 174.18424 15692 ft 240 kts 158°
2026-04-11 09:35 -36.14145 174.18943 15697 ft 243 kts 159°
2026-04-11 09:35 -36.15788 174.19469 15702 ft 245 kts 159°
2026-04-11 09:36 -36.17445 174.20002 15701 ft 247 kts 159°
2026-04-11 09:36 -36.19117 174.20536 15705 ft 250 kts 159°
2026-04-11 09:36 -36.20822 174.21087 15707 ft 257 kts 159°
2026-04-11 09:36 -36.22581 174.21651 15702 ft 264 kts 159°
2026-04-11 09:37 -36.24380 174.22229 15708 ft 270 kts 159°
2026-04-11 09:37 -36.26215 174.22817 15707 ft 275 kts 159°
2026-04-11 09:37 -36.28077 174.23414 15706 ft 278 kts 160°
2026-04-11 09:37 -36.29954 174.24043 15709 ft 280 kts 156°
2026-04-11 09:38 -36.31818 174.24780 15713 ft 283 kts 158°
2026-04-11 09:38 -36.33722 174.25441 15716 ft 285 kts 159°
2026-04-11 09:38 -36.35636 174.26130 15718 ft 287 kts 158°
2026-04-11 09:38 -36.37551 174.26849 15719 ft 288 kts 158°
2026-04-11 09:39 -36.39449 174.27561 15720 ft 290 kts 158°
2026-04-11 09:39 -36.41383 174.28283 15706 ft 291 kts 158°
2026-04-11 09:39 -36.43383 174.29031 15423 ft 302 kts 158°
2026-04-11 09:39 -36.45433 174.29798 15043 ft 314 kts 158°
2026-04-11 09:40 -36.47533 174.30583 14629 ft 324 kts 158°
2026-04-11 09:40 -36.49755 174.31413 14192 ft 333 kts 158°
2026-04-11 09:40 -36.51995 174.32247 13745 ft 339 kts 158°
2026-04-11 09:40 -36.54243 174.33092 13276 ft 344 kts 158°
2026-04-11 09:41 -36.56577 174.33961 12803 ft 347 kts 157°
2026-04-11 09:41 -36.58889 174.34832 12346 ft 348 kts 157°
2026-04-11 09:41 -36.61170 174.35680 11895 ft 344 kts 156°
2026-04-11 09:41 -36.63435 174.36531 11445 ft 337 kts 156°
2026-04-11 09:42 -36.65663 174.37366 11002 ft 332 kts 155°
2026-04-11 09:42 -36.67858 174.38195 10572 ft 328 kts 155°
2026-04-11 09:42 -36.70034 174.39010 10137 ft 325 kts 155°
2026-04-11 09:43 -36.74315 174.40624 9265 ft 318 kts 155°
2026-04-11 09:43 -36.76420 174.41414 8848 ft 314 kts 155°
2026-04-11 09:43 -36.78500 174.42201 8436 ft 311 kts 154°
2026-04-11 09:43 -36.80568 174.42977 8026 ft 309 kts 154°
2026-04-11 09:44 -36.82616 174.43754 7614 ft 305 kts 155°
2026-04-11 09:44 -36.84581 174.44480 7234 ft 279 kts 154°
2026-04-11 09:44 -36.86391 174.45161 6870 ft 265 kts 153°
2026-04-11 09:44 -36.88094 174.45815 6530 ft 254 kts 153°
2026-04-11 09:45 -36.89756 174.46443 6205 ft 245 kts 153°
2026-04-11 09:45 -36.91363 174.47054 5875 ft 238 kts 153°
2026-04-11 09:45 -36.92931 174.47644 5563 ft 232 kts 152°
2026-04-11 09:45 -36.94460 174.48226 5267 ft 227 kts 152°
2026-04-11 09:46 -36.95960 174.48797 4978 ft 224 kts 151°
2026-04-11 09:46 -36.97439 174.49357 4685 ft 221 kts 152°
2026-04-11 09:46 -36.98833 174.49882 4411 ft 217 kts 151°
2026-04-11 09:46 -37.00272 174.50434 4127 ft 215 kts 151°
2026-04-11 09:47 -37.01660 174.51057 3839 ft 211 kts 150°
2026-04-11 09:47 -37.03058 174.51631 3567 ft 213 kts 150°
2026-04-11 09:47 -37.04472 174.52227 3287 ft 210 kts 149°
2026-04-11 09:47 -37.05662 174.53125 3014 ft 194 kts 128°
2026-04-11 09:48 -37.06480 174.54383 2809 ft 178 kts 113°
2026-04-11 09:48 -37.06899 174.55762 2770 ft 162 kts 99°
2026-04-11 09:48 -37.06939 174.57138 2757 ft 158 kts 84°
2026-04-11 09:48 -37.06709 174.58386 2794 ft 135 kts 77°
2026-04-11 09:49 -37.06447 174.59477 2760 ft 124 kts 76°
2026-04-11 09:49 -37.06188 174.60470 2694 ft 119 kts 77°
2026-04-11 09:49 -37.05923 174.61433 2561 ft 117 kts 76°
2026-04-11 09:49 -37.05658 174.62402 2409 ft 120 kts 76°
2026-04-11 09:50 -37.05383 174.63398 2242 ft 121 kts 77°
2026-04-11 09:50 -37.05110 174.64382 2084 ft 117 kts 76°
2026-04-11 09:50 -37.04855 174.65346 1937 ft 118 kts 78°
2026-04-11 09:50 -37.04580 174.66343 1774 ft 124 kts 78°
2026-04-11 09:51 -37.04297 174.67372 1614 ft 126 kts 77°
2026-04-11 09:51 -37.04011 174.68415 1440 ft 128 kts 77°
2026-04-11 09:51 -37.03722 174.69467 1274 ft 128 kts 78°
2026-04-11 09:51 -37.03428 174.70531 1095 ft 130 kts 77°
2026-04-11 09:52 -37.03137 174.71595 927 ft 129 kts 77°
2026-04-11 09:52 -37.02843 174.72646 760 ft 123 kts 80°
2026-04-11 09:52 -37.02582 174.73610 605 ft 112 kts 79°
2026-04-11 09:52 -37.02303 174.74611 481 ft 130 kts 76°
2026-04-11 09:53 -37.02010 174.75640 378 ft 120 kts 77°
2026-04-11 09:53 -37.01753 174.76625 120 ft 114 kts 79°
2026-04-11 09:53 -37.01512 174.77516 27 ft 100 kts 76°
2026-04-11 09:53 -37.01307 174.78268 20 ft 83 kts 75°
2026-04-11 09:54 -37.01158 174.78878 19 ft 64 kts 67°
2026-04-11 09:54 -37.01016 174.79328 19 ft 49 kts 66°
2026-04-11 09:54 -37.00865 174.79653 19 ft 29 kts 32°
2026-04-11 09:54 -37.00759 174.79749 21 ft 18 kts 42°
2026-04-11 09:55 -37.00668 174.79888 19 ft 21 kts 63°
2026-04-11 09:55 -37.00619 174.80052 21 ft 19 kts 69°
2026-04-11 09:55 -37.00573 174.80213 21 ft 21 kts 74°
2026-04-11 09:55 -37.00517 174.80367 21 ft 17 kts 25°
2026-04-11 09:56 -37.00426 174.80380 20 ft 11 kts 62°
2026-04-11 09:56 -37.00373 174.80444 19 ft 11 kts 17°
2026-04-11 09:56 -37.00291 174.80426 20 ft 14 kts 341°
2026-04-11 09:56 -37.00261 174.80440 19 ft 3 kts 92°
2026-04-11 09:57 -37.00279 174.80489 22 ft 8 kts 181°
2026-04-11 09:57 -37.00306 174.80488 22 ft 0 kts 181°